sat.trackr.live / text

‹ back to catalog

STARLINK-31047

NORAD 58783 · 2024-011U

PAYLOAD ACTIVE UNKNOWN

§ Identity

Operator
Country
US
Launch date
2024-01-14
Launch site
AFWTR
Launch vehicle
Mass (kg)
RCS (m²)

Purposes: comms

External: N2YO · Heavens-Above · Gunter

§ Orbital elements

Epoch: 2026-05-25T00:23:00.069792Z

Period
93.85 min
Inclination
53.1617°
Eccentricity
0.0001159
Mean motion
15.34390934 rev/d
Perigee alt
461.9 km
Apogee alt
463.5 km
Semi-major
6,840.9 km
B*
6.1233e-5
RAAN
3.2425°
Arg perigee
71.1232°
Mean anomaly
288.9896°
Rev number
13,217

§ Raw data

STARLINK-310471 58783U 24011U   26145.01597303  .00001693  00000+0  61233-4 0  99922 58783  53.1617   3.2425 0001159  71.1232 288.9896 15.34390934132179

JSON: /api/v1/satellites/58783 · /tle

For live sub-satellite position, see the globe view (requires WebGL).

§ Visibility from observer

Set your observer location to see the next 7 days of passes ≥ 10°. The values pass through the URL so the page stays shareable.

No JS? Fill the form by hand. The geolocation button needs JavaScript.